星链-30524 (STARLINK-30524 )

导读

STARLINK-30524是美国太空探索技术公司(SpaceX)星链(Starlink)互联网星座项目的卫星,于2023年9月30日发射,属于低轨通信卫星。星链项目旨在构建全球覆盖的低轨卫星互联网,该卫星部署于近地轨道,依托先进相控阵通信技术,可为全球用户提供高速低延迟宽带服务,进一步拓展星链网络的覆盖范围与服务稳定性,助力偏远地区网络接入,推动全球卫星通信发展。

基本信息
目录编号:
57965
目录名称:
STARLINK-30524
国际标识:
2023-151B
轨道中心:
EARTH
卫星名称:
星链-30524
卫星全名:
星链-30524 (STARLINK-30524 )
卫星状态:
在轨 (已飞行1070 天)
发射日期:
2023-09-30 UTC
国别 :
美国 (US)
星等 :
--
轨道信息
数据来源 国际轨道数据
星历时间: 2026-09-03T20:56:38+0800
15小时前
查看轨道信息
半长轴: 6861.184km
偏心率: 0.0001752
轨道倾角: 43.003°
近地点辐角 259.807°
升交点赤经 51.831°
平近点角 100.258°
近地点: 481.844km
远地点: 484.25km
周期: 94.267分钟
每日圈数: 15.27581
详细信息
固有亮度:
5
最大亮度:
0.3
卫星平台:
Starlink v2.0 mini
覆盖范围:
全球
运营商:
太空探索技术公司
运营商所在国:
美国
制造商(研发单位):
太空探索技术公司
制造商所在国:
美国
使用方式:
暂无
卫星简介
星链(Starlink)计划是由太空探索技术公司(SpaceX)提出的一个巨型低轨卫星互联网星座项目,计划在2019年至2024年间在太空搭建由约1.2万颗卫星组成的“星链”网络,其中1584颗将部署在地球上空550千米处的近地轨道,并从2020年开始工作。该卫星仍在工作。
2D轨道图
3D轨道图
轨道高度分析图
轨道倾角分析图
轨道综合分析图
查看轨道综合分析图